Skip Page Navigation
NASA JPL Caltech
NASA Logo - Jet Propulsion Laboratory + View the NASA Portal
+ Center for Near-Earth Object Studies
JPL Home Earth Solar System Stars & Galaxies Technology
JPL Solar System Dynamics
BODIES ORBITS EPHEMERIDES TOOLS PHYSICAL DATA DISCOVERY FAQ SITE MAP

Significant website upgrade scheduled for September 27. More details available here.

JPL Small-Body Database Browser
Search: [ help ]  
(2010 TB54)
Classification: Apollo [NEO]          SPK-ID: 3548525
Ephemeris | Orbit Diagram | Orbital Elements | Mission Design | Physical Parameters | Close-Approach Data ]

[ hide orbit diagram ]

For accurate long-term ephemerides, please instead use our Horizons system.This orbit viewer was implemented using two-body methods, and hence should not be used for determining accurate long-term trajectories (over several years or decades) or planetary encounter circumstances.


Orbital Elements at Epoch 2459396.5 (2021-Jul-01.0) TDB
Reference: JPL 8 (heliocentric ecliptic J2000)
 Element Value Uncertainty (1-sigma)   Units 
e .2793856251893451 0.00041859  
a 1.152627784185326 0.00038122 au
q .8306001500900995 0.00020786 au
i 6.62043584036638 0.011458 deg
node 14.18335947720383 0.0016366 deg
peri 82.64081942312465 0.0044984 deg
M 189.6499977061946 1.6558 deg
tp 2459610.380748831358
(2022-Jan-30.88074883)
2.185 TDB
period 451.9933580422898
1.24
0.22424
0.0006139
d
yr
n .7964718808242252 0.00039513 deg/d
Q 1.474655418280553 0.00048772 au
  Orbit Determination Parameters
   # obs. used (total)      29  
   data-arc span      3 days  
   first obs. used      2010-10-09  
   last obs. used      2010-10-12  
   planetary ephem.      DE441  
   SB-pert. ephem.      SB441-N16  
   condition code      7  
   norm. resid. RMS      .4501  
   source      ORB  
   producer      Otto Matic  
   solution date      2021-Apr-15 04:16:08  

Additional Information
 Earth MOID = .0111072 au 
 Jupiter MOID = 3.68807 au 
 T_jup = 5.412 
[ show covariance matrix ]

Ephemeris | Orbit Diagram | Orbital Elements | Mission Design | Physical Parameters | Close-Approach Data ]

Physical Parameter Table
Parameter Symbol Value Units Sigma Reference Notes
absolute magnitude H 26.8   n/a MPO190734  

[ show close-approach data ]
Ephemeris | Orbit Diagram | Orbital Elements | Mission Design | Physical Parameters | Close-Approach Data ]
ABOUT SSD CREDITS/AWARDS PRIVACY/COPYRIGHT GLOSSARY LINKS
FirstGov 2021-Sep-17 10:22 UT
(server date/time)  
NASA Home Page
Site Manager:   Ryan S. Park
Webmaster  Alan B. Chamberlin